Regional Weather Roundup
Issued by NWS State College, PA

Home | Current Version | Previous Version | Text Only | Print | Product List | Glossary Off
Versions: 1 2 3 4 5 6 7 8 9 10 11 12 13 14 15 16 17 18 19 20 21 22 23 24 25 26 27 28 29 30 31 32 33 34 35 36 37 38 39 40 41 42 43 44 45 46 47 48 49 50

000
ASUS41 KCTP 271910
RWRCTP

REGIONAL WEATHER ROUNDUP
NATIONAL WEATHER SERVICE STATE COLLEGE PA
300 PM EDT SUN MAY 27 2018

Note: "fair" indicates few or no clouds below 12,000 feet with no
significant weather and/or obstructions to visibility.

* = STATION THAT DOES NOT REPORT PRECIPITATION /E.G. RAIN...SNOW...ETC/
    THUNDER OR FOG.

PAZ002>004-007>009-013>016-020>023-029>032-272000-
WESTERN PENNSYLVANIA

CITY           SKY/WX    TMP DP  RH WIND       PRES   REMARKS
ERIE           FAIR      74  66  76 NW8       29.93R
MEADVILLE      PTSUNNY   78  67  68 VRB5      29.95S
FRANKLIN*      PTSUNNY   78  64  61 CALM      29.96
NEW CASTLE     FAIR      80  68  66 VRB3      29.94F
BEAVER COUNTY  NOT AVBL
BUTLER*        FAIR      80  68  66 W5        29.95F
PITTSBURGH INT FAIR      80  67  64 W8        29.94F
PITTSBURGH     PTSUNNY   79  68  69 VRB5      29.93F
INDIANA*       PTSUNNY   77  70  78 E5        29.99S
LATROBE        PTSUNNY   79  72  78 VRB6      29.95F
WASHINGTON CO* PTSUNNY   78  69  73 VRB6      29.97S
$$

PAZ004>006-010>012-017>019-024>028-033>037-041-042-045-046-049>053-272000-
CENTRAL PENNSYLVANIA

CITY           SKY/WX    TMP DP  RH WIND       PRES   REMARKS
BRADFORD       PTSUNNY   78  61  55 VRB7      29.97F
DUBOIS         PTSUNNY   76  66  71 VRB5      29.96S
CLEARFIELD     FAIR      76  67  73 VRB3      29.97F
JOHNSTOWN      RAIN      70  67  90 W3        29.99S FOG
ALTOONA        CLOUDY    73  67  81 NE3       29.98F
STATE COLLEGE  CLOUDY    73  68  83 CALM      29.97F
WILLIAMSPORT   CLOUDY    72  65  78 E7        29.95F
SELINSGROVE    CLOUDY    74  65  73 E7        29.96F
FT INDIANTOWN  CLOUDY    71  66  84 E6        29.97S
CAPITAL CITY   CLOUDY    77  66  68 SE9       29.95R
HARRISBURG     CLOUDY    75  66  73 E9        29.94S
YORK           TSTM      73  70  90 NE9       29.93F FOG
$$

PAZ038>040-043-044-047-048-054-055-060>062-067>071-272000-
EASTERN PENNSYLVANIA

CITY           SKY/WX    TMP DP  RH WIND       PRES   REMARKS
SCRANTON       CLOUDY    67  62  84 VRB7      30.00S
MOUNT POCONO   FOG       60  60 100 VRB6      30.04S VSB 1/2
ALLENTOWN      CLOUDY    69  61  75 E12       30.00S
QUAKERTOWN*    CLOUDY    64  64 100 E8        30.01S
READING        CLOUDY    71  66  84 E9        29.97S
LANCASTER      CLOUDY    75  67  76 E14       29.96F
COATESVILLE    CLOUDY    68  64  88 E10G21    29.99S
POTTSTOWN      CLOUDY    66  64  93 MISG      30.00S
BLUE BELL      CLOUDY    63  63 100 E14       30.00F
DOYLESTOWN     CLOUDY    64  63  96 NE6       29.99F FOG
WILLOW GROVE   NOT AVBL
NORTH PHILA    CLOUDY    66  61  84 E18       30.01S
PHILADELPHIA   CLOUDY    67  63  87 NE13      29.98S
$$



USA.gov is the U.S. government's official web portal to all federal, state and local government web resources and services.